Weather in Osteraker

Sweden     59°07′29″N   15°59′20″E
temp.,
°C
wind,
m/s
gust,
m/s
humid.,
%
clouds,
%
prec.,
mm/h
press.,
hPa
HPBL,
m
17 june, thu
thu1723:00+13nw1168100 0.0 101811
02:00+13ssw0067100 0.0 101812
05:00+13sse006997 0.0 101811
08:00+19ssw1347100 0.0 1019430
11:00+23s4537100 0.0 10181123
14:00+26ssw462399 0.0 10181733
17:00+27ssw362193 0.0 10161980
20:00+22sse49555 0.0 1016417
18 june, fri
fri1823:00+18s413585 0.0 1016345
02:00+16s412665 0.0 1016257
05:00+16s313733 0.0 1014317
08:00+24ssw5125689 0.0 1013548
11:00+30ssw510385 0.0 10121992
14:00+31sw583697 0.0 10122298
17:00+29ssw254694 0.0 1012794
20:00+24nnw127169 0.3 101299
19 june, sat
sat1923:00+19w249238 1.3 101471
02:00+17wsw1191100 1.6 101411
05:00+17ene22944 0.0 101437
08:00+22ese35761 0.0 1013425
11:00+29sse59400 0.0 10111612
14:00+26s255238 0.0 1010145
17:00+24se357467 1.0 1008168
20:00+23sw613775 2.5 1008882
20 june, sun
sun2023:00+18wsw411710 0.1 1012736
02:00+14sw3984100 0.1 1012445
05:00+12wsw288936 0.0 1013365
08:00+16wsw2470100 0.0 1014529
11:00+22w234817 0.0 10141032
14:00+26wsw232999 0.0 10131607
17:00+27ssw232055 0.0 10131440
20:00+22se37425 0.0 1013289
21 june, mon
mon2123:00+15ese310585 0.0 1013197
02:00+14se3118697 0.0 1012247
05:00+16ese3109241 0.0 1011247
08:00+21sse4117859 0.6 1010526
11:00+29sse694353 0.0 10091915
14:00+31sse79365 0.0 10072649
17:00+29se7104540 0.0 10061263
20:00+21nw368385 0.3 1008324